Fortuna, CA

12:14 PM PDT on September 22, 2019 (GMT -0700)
Rohnerville

Weather History for KFOT - July, 2019

Change the Weather History Date:

Saturday, July 27, 2019

  Actual Average (WUND) Record (WUND)
Temperature  
Mean Temperature 64 °F -  
Max Temperature 73 °F - - (-1)
Min Temperature 55 °F - - (-1)
Degree Days  
Heating Degree Days 1    
Growing Degree Days 14 (Base 50)    
Moisture  
Dew Point 56 °F    
Average Humidity 79    
Maximum Humidity 100    
Minimum Humidity 57    
Precipitation  
Precipitation 0.00 in - - ()
Sea Level Pressure  
Sea Level Pressure 30.16 in    
Wind  
Wind Speed 6 mph (WNW)    
Max Wind Speed 18 mph    
Max Gust Speed 25 mph    
Visibility 10 miles    
Events      
Averages and records for this station are not official NWS values.
T = Trace of Precipitation, MM = Missing Value Source: NWS Daily Summary

Daily Weather History Graph

Daily Weather History Graph

Search for Another Location

Airport or City:

Astronomy

Jul. 27, 2019 Rise Set
Actual Time 6:08 AM PDT 8:36 PM PDT
Civil Twilight 5:37 AM PDT 9:07 PM PDT
Nautical Twilight 4:59 AM PDT 9:46 PM PDT
Astronomical Twilight 4:15 AM PDT 10:29 PM PDT
Moon 1:58 AM PDT (7/27) 4:34 PM PDT (7/27)
Length of Visible Light 15h 30m
Length of Day
14h 27m
Waning Crescent, 23% of the Moon is Illuminated
Jul 27
Waning Crescent
Jul 31
New
Aug 7
First Quarter
Aug 15
Full
Aug 23
Last Quarter

Hourly Weather History & Observations

Time (PDT) Temp. Dew Point Humidity Pressure Visibility Wind Dir Wind Speed Gust Speed Precip Events Conditions
12:10 AM 57.2 °F 55.4 °F 94% 30.17 in 10.0 mi NW 3.5 mph - N/A   Overcast
12:30 AM 57.2 °F 55.4 °F 94% 30.17 in 10.0 mi NW 3.5 mph - N/A   Overcast
12:50 AM 57.2 °F 55.4 °F 94% 30.17 in 10.0 mi NW 3.5 mph - N/A   Overcast
1:10 AM 57.2 °F 55.4 °F 94% 30.16 in 10.0 mi NW 4.6 mph - N/A   Overcast
1:30 AM 57.2 °F 55.4 °F 94% 30.16 in 10.0 mi WNW 4.6 mph - N/A   Overcast
1:50 AM 57.2 °F 55.4 °F 94% 30.16 in 10.0 mi Calm Calm - N/A   Overcast
2:10 AM 57.2 °F 55.4 °F 94% 30.15 in 10.0 mi NNW 3.5 mph - N/A   Overcast
2:30 AM 57.2 °F 55.4 °F 94% 30.15 in 10.0 mi Calm Calm - N/A   Overcast
2:50 AM 57.2 °F 55.4 °F 94% 30.14 in 10.0 mi Calm Calm - N/A   Overcast
3:30 AM 57.2 °F 55.4 °F 94% 30.14 in 10.0 mi Calm Calm - N/A   Overcast
3:50 AM 57.2 °F 55.4 °F 94% 30.13 in 10.0 mi Calm Calm - N/A   Overcast
4:10 AM 57.2 °F 55.4 °F 94% 30.13 in 10.0 mi Calm Calm - N/A   Overcast
4:30 AM 57.2 °F 55.4 °F 94% 30.13 in 10.0 mi Calm Calm - N/A   Overcast
4:50 AM 57.2 °F 55.4 °F 94% 30.13 in 10.0 mi Calm Calm - N/A   Overcast
5:10 AM 57.2 °F 55.4 °F 94% 30.13 in 10.0 mi Calm Calm - N/A   Overcast
5:30 AM 57.2 °F 55.4 °F 94% 30.14 in 10.0 mi Calm Calm - N/A   Overcast
5:50 AM 57.2 °F 55.4 °F 94% 30.14 in 10.0 mi SE 3.5 mph - N/A   Overcast
6:10 AM 57.2 °F 55.4 °F 94% 30.14 in 10.0 mi SE 3.5 mph - N/A   Overcast
6:30 AM 55.4 °F 55.4 °F 100% 30.15 in 10.0 mi Calm Calm - N/A   Overcast
6:50 AM 55.4 °F 53.6 °F 94% 30.15 in 5.0 mi Calm Calm - N/A   Overcast
7:10 AM 55.4 °F 53.6 °F 94% 30.16 in 7.0 mi ESE 3.5 mph - N/A   Overcast
7:30 AM 55.4 °F 53.6 °F 94% 30.16 in 10.0 mi Calm Calm - N/A   Mostly Cloudy
7:50 AM 55.4 °F 55.4 °F 100% 30.17 in 9.0 mi Calm Calm - N/A   Mostly Cloudy
8:10 AM 55.4 °F 55.4 °F 100% 30.17 in 10.0 mi Calm Calm - N/A   Overcast
8:30 AM 57.2 °F 55.4 °F 94% 30.17 in 10.0 mi Calm Calm - N/A   Overcast
9:10 AM 59.0 °F 55.4 °F 88% 30.17 in 10.0 mi WNW 3.5 mph - N/A   Partly Cloudy
9:30 AM 60.8 °F 55.4 °F 82% 30.17 in 10.0 mi NNW 5.8 mph - N/A   Partly Cloudy
9:50 AM 62.6 °F 57.2 °F 82% 30.17 in 10.0 mi NW 4.6 mph - N/A   Scattered Clouds
10:10 AM 64.4 °F 57.2 °F 77% 30.17 in 10.0 mi WNW 6.9 mph - N/A   Partly Cloudy
10:30 AM 66.2 °F 57.2 °F 73% 30.17 in 10.0 mi NW 5.8 mph - N/A   Partly Cloudy
10:50 AM 66.2 °F 57.2 °F 73% 30.17 in 10.0 mi WNW 6.9 mph - N/A   Partly Cloudy
11:10 AM 68.0 °F 57.2 °F 68% 30.17 in 10.0 mi WNW 8.1 mph - N/A   Partly Cloudy
11:30 AM 68.0 °F 59.0 °F 73% 30.17 in 10.0 mi WNW 9.2 mph - N/A   Partly Cloudy
11:50 AM 69.8 °F 59.0 °F 68% 30.17 in 10.0 mi NW 11.5 mph - N/A   Partly Cloudy
12:10 PM 69.8 °F 59.0 °F 68% 30.17 in 10.0 mi WNW 10.4 mph - N/A   Partly Cloudy
12:30 PM 71.6 °F 57.2 °F 60% 30.17 in 10.0 mi WNW 12.7 mph - N/A   Partly Cloudy
12:50 PM 73.4 °F 57.2 °F 57% 30.17 in 10.0 mi West 16.1 mph 19.6 mph N/A   Partly Cloudy
1:10 PM 71.6 °F 57.2 °F 60% 30.17 in 10.0 mi WNW 15.0 mph - N/A   Partly Cloudy
1:30 PM 71.6 °F 57.2 °F 60% 30.16 in 10.0 mi West 16.1 mph - N/A   Partly Cloudy
1:50 PM 71.6 °F 55.4 °F 57% 30.17 in 10.0 mi West 18.4 mph - N/A   Partly Cloudy
2:10 PM 71.6 °F 55.4 °F 57% 30.16 in 10.0 mi West 17.3 mph 21.9 mph N/A   Partly Cloudy
2:30 PM 69.8 °F 55.4 °F 60% 30.17 in 10.0 mi West 18.4 mph 23.0 mph N/A   Scattered Clouds
2:50 PM 71.6 °F 57.2 °F 60% 30.17 in 10.0 mi West 17.3 mph 21.9 mph N/A   Partly Cloudy
3:10 PM 71.6 °F 57.2 °F 60% 30.17 in 10.0 mi West 16.1 mph 21.9 mph N/A   Partly Cloudy
3:30 PM 71.6 °F 57.2 °F 60% 30.17 in 10.0 mi West 18.4 mph - N/A   Partly Cloudy
3:50 PM 71.6 °F 57.2 °F 60% 30.16 in 10.0 mi West 17.3 mph 23.0 mph N/A   Partly Cloudy
4:10 PM 69.8 °F 57.2 °F 64% 30.16 in 10.0 mi West 18.4 mph 23.0 mph N/A   Clear
4:30 PM 68.0 °F 57.2 °F 68% 30.16 in 10.0 mi West 17.3 mph 23.0 mph N/A   Clear
4:50 PM 68.0 °F 57.2 °F 68% 30.15 in 10.0 mi West 17.3 mph 25.3 mph N/A   Partly Cloudy
5:10 PM 68.0 °F 57.2 °F 68% 30.15 in 10.0 mi West 18.4 mph 25.3 mph N/A   Clear
5:30 PM 68.0 °F 57.2 °F 68% 30.15 in 10.0 mi West 17.3 mph - N/A   Clear
5:50 PM 68.0 °F 57.2 °F 68% 30.15 in 10.0 mi West 16.1 mph - N/A   Clear
6:10 PM 66.2 °F 57.2 °F 73% 30.15 in 10.0 mi West 17.3 mph 24.2 mph N/A   Clear
6:30 PM 66.2 °F 55.4 °F 68% 30.15 in 10.0 mi West 17.3 mph 23.0 mph N/A   Clear
6:50 PM 66.2 °F 55.4 °F 68% 30.15 in 10.0 mi West 18.4 mph - N/A   Clear
7:10 PM 64.4 °F 53.6 °F 68% 30.15 in 10.0 mi West 17.3 mph 21.9 mph N/A   Clear
7:30 PM 62.6 °F 53.6 °F 72% 30.15 in 10.0 mi West 17.3 mph - N/A   Clear
7:50 PM 62.6 °F 53.6 °F 72% 30.15 in 10.0 mi West 17.3 mph 21.9 mph N/A   Partly Cloudy
8:10 PM 60.8 °F 53.6 °F 77% 30.15 in 10.0 mi West 15.0 mph - N/A   Partly Cloudy